User: anonymous   Login
Location: Gollag?dem
(16.8053°N, 80.8024°E)
Time: 18:53:23
(UTC+00:00)
Language:

Cosmos 1697 Rocket - Orbit

View from above orbital plane
View from above orbital plane
View from above satellite
View from above satellite

Ground track
Ground track

The orbit data is extracted from the following two-line orbital elements,

1 16182U 85097B   20296.16322623  .00000053  00000-0  50943-4 0  9994
2 16182  71.0025 314.8967 0007574 352.1904  68.6672 14.16258259809375
Epoch (UTC): 22 October 2020 03:55:02
Eccentricity: 0.0007574
inclination: 71.0025°
perigee height: 832 km
apogee height: 843 km
right ascension of ascending node: 314.8967°
argument of perigee: 352.1904°
revolutions per day: 14.16258259
mean anomaly at epoch: 68.6672°
orbit number at epoch: 80937

The dashed part of the orbit path shows where the satellite is in the earth's shadow,  

DLR